Regional Weather Roundup
Issued by NWS Memphis, TN

Current Version | Previous Version | Text Only | Print | Product List | Glossary On
Versions: 1 2 3 4 5 6 7 8 9 10 11 12 13 14 15 16 17 18 19 20 21 22 23 24 25 26 27 28 29 30 31 32 33 34 35 36 37 38 39 40 41 42 43 44 45 46 47 48 49 50
000
ASUS44 KMEG 210900
RWRMEG
MEMPHIS CWA HOURLY WEATHER ROUNDUP
NATIONAL WEATHER SERVICE MEMPHIS TN
400 AM CDT TUE OCT 21 2014

...WEST TENNESSEE...

CITY           SKY/WX    TMP DP  RH WIND       PRES   REMARKS
MEMPHIS INTL   CLEAR     56  52  86 CALM      30.02F
NWS MEMPHIS      N/A     53 N/A N/A MISG        N/A
JACKSON        CLEAR     50  48  93 CALM      30.02S
LEXINGTON      CLEAR     46  46 100 CALM      30.01S
SAVANNAH       CLEAR     46  46 100 CALM      30.02S
DYERSBURG      CLEAR     54  43  66 CALM      30.04S
UNION CITY     CLEAR     52  52 100 CALM      30.02R
PARIS          CLEAR     46  46 100 NE3       30.02S


...EASTERN ARKANSAS...

CITY           SKY/WX    TMP DP  RH WIND       PRES   REMARKS
JONESBORO      CLEAR     59  55  87 N3        30.04R
WEST MEMPHIS   CLEAR     53  53 100 CALM      30.02S
BATESVILLE     CLEAR     57  54  88 W3        30.06R
WALNUT RIDGE   CLEAR     54  50  87 N9        30.05S
BLYTHEVILLE    CLEAR     51  50  96 N6        30.04R FOG
SEARCY         CLEAR     51  51 100 CALM      30.06R FOG
STUTTGART      CLEAR     54  52  94 W5        30.05R
PINE BLUFF     PTCLDY    59  56  89 W3        30.04F
MONTICELLO     PTCLDY    55  53  93 CALM      30.04S


...NORTH MISSISSIPPI...

CITY           SKY/WX    TMP DP  RH WIND       PRES   REMARKS
TUPELO         CLEAR     51  48  89 CALM      30.03S
CLARKSDALE     CLEAR     54  54 100 CALM      30.04S
GREENWOOD      CLEAR     50  48  93 CALM      30.04S
COLUMBUS       CLEAR     47  47 100 CALM      30.03S
STARKVILLE     FAIR      46  46 100 CALM      30.04S
GOLDEN TRIANGL CLEAR     48  45  87 CALM      30.03S


...SOUTHEAST MISSOURI...

CITY           SKY/WX    TMP DP  RH WIND       PRES   REMARKS
WEST PLAINS    CLEAR     48  44  86 CALM      30.09S
CAPE GIRARDEAU CLEAR     45  44  97 SW3       30.04S


...NORTHWEST ALABAMA...

CITY           SKY/WX    TMP DP  RH WIND       PRES   REMARKS
MUSCLE SHOALS  CLEAR     47  44  90 CALM      30.03F


...MIDDLE TENNESSEE...

CITY           SKY/WX    TMP DP  RH WIND       PRES   REMARKS
NASHVILLE      CLEAR     50  48  93 CALM      30.00F
CLARKSVILLE    CLEAR     50  50 100 W3        30.01S FOG


...WESTERN KENTUCKY...

CITY           SKY/WX    TMP DP  RH WIND       PRES   REMARKS
PADUCAH        CLEAR     45  44  97 SW5       30.02R


...CENTRAL ARKANSAS...

CITY           SKY/WX    TMP DP  RH WIND       PRES   REMARKS
LITTLE ROCK    CLEAR     55  52  89 SW3       30.05S


SKY/WX REPORTED AS FAIR MEANS FEW OR NO CLOUDS BELOW
12 THOUSAND FEET.



USA.gov is the U.S. government's official web portal to all federal, state and local government web resources and services.